Regional Weather Roundup
Issued by NWS State College, PA

Home | Current Version | Previous Version | Graphics & Text | Print | Product List | Glossary On
Versions: 1 2 3 4 5 6 7 8 9 10 11 12 13 14 15 16 17 18 19 20 21 22 23 24 25 26 27 28 29 30 31 32 33 34 35 36 37 38 39 40 41 42 43 44 45 46 47 48 49 50
000
ASUS41 KCTP 251603
RWRCTP

REGIONAL WEATHER ROUNDUP
NATIONAL WEATHER SERVICE STATE COLLEGE PA
1200 PM EDT MON JUL 25 2016

Note: "fair" indicates few or no clouds below 12,000 feet with no
significant weather and/or obstructions to visibility.

* = STATION THAT DOES NOT REPORT PRECIPITATION /E.G. RAIN...SNOW...ETC/
    THUNDER OR FOG.

PAZ002>004-007>009-013>016-020>023-029>032-251700-
WESTERN PENNSYLVANIA

CITY           SKY/WX    TMP DP  RH WIND       PRES   REMARKS
ERIE           CLOUDY    81  72  74 W15       29.92F
MEADVILLE      PTSUNNY   81  71  71 W12       29.97R
FRANKLIN*      PTSUNNY   84  73  70 W14G20    29.99S
NEW CASTLE     PTSUNNY   85  75  72 W9        29.97R
BEAVER COUNTY  PTSUNNY   84  73  70 W7        29.98S
BUTLER*        PTSUNNY   86  75  70 W12       30.00F HX  95
PITTSBURGH INT MOSUNNY   88  72  58 SW8       29.97F
PITTSBURGH     PTSUNNY   89  71  55 SW14      29.98S HX  95
INDIANA*       MOSUNNY   88  77  70 SW7G14    30.02S HX 100
LATROBE        PTSUNNY   90  75  62 SW8       30.00F HX 100
WASHINGTON CO* MOSUNNY   90  73  58 SW9G18    30.00S HX  98
$$

PAZ004>006-010>012-017>019-024>028-033>037-041-042-045-046-049>053-251700-
CENTRAL PENNSYLVANIA

CITY           SKY/WX    TMP DP  RH WIND       PRES   REMARKS
BRADFORD       CLOUDY    82  71  69 W8        29.98F
DUBOIS         MOSUNNY   84  72  67 W17       29.98F
CLEARFIELD     MOSUNNY   85  74  69 VRB7      29.98F
JOHNSTOWN      MOSUNNY   84  70  62 W12       30.05F
ALTOONA        MOSUNNY   87  72  60 SW8       30.01F
STATE COLLEGE  SUNNY     86  75  70 W7        29.97F HX  95
WILLIAMSPORT   LGT RAIN  84  71  65 SE5       29.91F
SELINSGROVE    CLOUDY    88  76  67 CALM      29.93F HX  99
FT INDIANTOWN  MOSUNNY   90  73  57 S6        29.93F HX  97
CAPITAL CITY   CLOUDY    92  75  57 W7        29.93F HX 103
HARRISBURG     CLOUDY    90  78  68 CALM      29.92F HX 104
YORK           SUNNY     92  75  57 VRB3      29.94F HX 103
$$

PAZ038>040-043-044-047-048-054-055-060>062-067>071-251700-
EASTERN PENNSYLVANIA

CITY           SKY/WX    TMP DP  RH WIND       PRES   REMARKS
SCRANTON       PTSUNNY   88  69  53 SW9       29.93F
MOUNT POCONO   CLOUDY    82  67  60 W12       30.01F
ALLENTOWN      SUNNY     92  70  48 SW9       29.93F HX  97
QUAKERTOWN*    SUNNY     90  73  58 SW3       29.95F HX  98
READING        CLOUDY    90  72  55 SW8       29.92F HX  97
LANCASTER      CLOUDY    88  73  61 W9        29.94F HX  95
COATESVILLE    SUNNY     88  75  66 W6        29.98F HX  97
POTTSTOWN      SUNNY     89  73  59 VRB6      29.96F HX  97
BLUE BELL      SUNNY     86  75  70 W5        29.93F HX  95
DOYLESTOWN     SUNNY     87  69  54 SW7       29.93F
WILLOW GROVE   NOT AVBL
NORTH PHILA    SUNNY     90  74  59 W5        29.94F HX  99
PHILADELPHIA   MOSUNNY   88  75  65 VRB7      29.93F HX  97
$$




USA.gov is the U.S. government's official web portal to all federal, state and local government web resources and services.